Location: Fernhill
(41.0167°S, 175.6333°E)
Time: 01:20:44
(UTC+00:00)

SJ-6B - Pass Details

Date: 08 November 2025
Orbit: 462 x 505 km, 97.4° (Epoch: 13 December)

Event Time Altitude Azimuth Distance (km) Brightness Sun altitude
Rises 08:13:00 0° 167° (SSE) 2,613 6.6 -11.8°
Reaches altitude 10° 08:15:08 10° 165° (SSE) 1,713 5.6 -12.1°
Maximum altitude 08:18:49 75° 78° (ENE) 513 2.5 -12.7°
Drops below altitude 10° 08:22:23 10° 352° (N) 1,658 5.0 -13.2°
Enters shadow 08:23:41 - 351° (N) 2,212 5.6 -13.4°
